Regional Weather Roundup
Issued by NWS

Home | Current Version | Previous Version | Text Only | Print | Product List | Glossary On
Versions: 1 2 3 4 5 6 7 8 9 10 11 12 13 14 15 16 17 18 19 20 21 22 23 24 25 26 27 28 29 30 31 32 33 34 35 36 37 38 39 40 41 42 43 44 45 46 47 48 49 50
000
ASUS45 KBOU 270807
RWRCO

WEATHER ROUNDUP FOR COLORADO
NATIONAL WEATHER SERVICE DENVER/BOULDER CO
200 AM MDT MON APR 27 2015

NOTE: "FAIR" INDICATES FEW OR NO CLOUDS BELOW 12000 FEET WITH NO
SIGNIFICANT WEATHER AND/OR OBSTRUCTIONS TO VISIBILITY.

COZ001>005-013-030-031-270900-
...NORTHWEST COLORADO...

CITY           SKY/WX    TMP DP  RH WIND       PRES   REMARKS
CRAIG          CLOUDY    41  38  89 W3        30.05R
HAYDEN         CLOUDY    39  36  87 W3        30.05R
MEEKER         CLOUDY    41  36  82 CALM      30.04S
MOUNT WERNER   NOT AVBL
STEAMBOAT SPGS CLOUDY    38  36  94 CALM      30.05S
WALDEN         MOCLDY    30  28  93 NW6       30.08S WCI  24
$$

COZ006>008-011-270900-
...WEST CENTRAL VALLEYS...

CITY           SKY/WX    TMP DP  RH WIND       PRES   REMARKS
GRAND JUNCTION PTCLDY    44  40  85 NE5       29.97R
MONTROSE       CLOUDY    44  42  93 CALM      30.00S
EAGLE          CLEAR     37  36  93 E3        30.04S
RIFLE          PTCLDY    40  37  89 NE5       30.00R
DELTA          NOT AVBL
NUCLA          NOT AVBL
$$

COZ017>023-064>068-270900-
...SOUTHWEST COLORADO...

CITY           SKY/WX    TMP DP  RH WIND       PRES   REMARKS
DURANGO        MOCLDY    36  35  96 N3        29.94R
CORTEZ         CLEAR     39  36  89 NE5       29.93R
PAGOSA SPRINGS MOCLDY    38  33  82 CALM      29.97S
TELLURIDE      CLOUDY    34  33  96 CALM      30.03R
WOLF CREEK PAS NOT AVBL
$$

COZ009-010-012-014-032>034-037-058>063-270900-
...CENTRAL COLORADO...

CITY           SKY/WX    TMP DP  RH WIND       PRES   REMARKS
ASPEN          MOCLDY    36  35  96 W3        30.02S
BUENA VISTA    CLOUDY    34  33  95 SE9       30.07S WCI  27
COPPER MTN     CLOUDY    30  21  69 E3        30.14R
BERTHOUD PASS  HAZE      19  12  73 E15       30.17R VSB<1/4 WCI   5
COTTONWOOD PAS CLOUDY    32  32 100 SE8       30.10S WCI  25
GUNNISON       PTCLDY    36  28  75 N6        30.04S
KREMMLING      CLEAR     32  28  86 CALM      30.08R
LEADVILLE      CLOUDY    29  28  96 CALM      30.08S
MONARCH PASS   CLOUDY    23  21  93 MISG      30.16F
SALIDA         CLOUDY    35  34  96 CALM      30.15S
SUNLIGHT       CLOUDY    32  32 100 NE5       30.13S FOG     WCI  27
WILKERSON PASS FOG      N/A N/A N/A NE8       30.14S VSB 1
$$

COZ069>075-270900-
...SAN LUIS VALLEY/SANGRE DE CRISTO MOUNTAINS...

CITY           SKY/WX    TMP DP  RH WIND       PRES   REMARKS
ALAMOSA        CLOUDY    36  32  85 N5        30.00S
LA VETA PASS   SNOW      27  25  93 MISG      30.03S VSB 1/2
SAGUACHE       CLOUDY    37  32  81 NW6       30.02R
$$

COZ035-036-038>040-270900-
...NORTHERN COLORADO FRONT RANGE...

CITY           SKY/WX    TMP DP  RH WIND       PRES   REMARKS
DENVER INTL AP CLOUDY    39  39 100 NE6       30.11F FOG
DMNS CITY PARK   N/A     39  37  93 E2        30.12S
AURORA         CLOUDY    38  38 100 N5        30.11F
FRONT RANGE AP CLOUDY    41  39  93 NE7       30.12S
ERIE MUNI ARPT DRIZZLE   40  39  95 N3        30.14R
BOULDER MUN AP DRIZZLE   37  37 100 CALM      30.13S
CENTENNIAL     LGT RAIN  37  36  96 N5        30.10F FOG
BROOMFIELD     RAIN      37  37 100 NE5       30.13S
FORT COLLINS   CLOUDY    39  37  93 N7        30.16R
LONGMONT       MIX PCPN  42  40  92 CALM      30.16S
$$

COZ041-046-047-076>085-087-088-270900-
...PIKES PEAK/PALMER DIVIDE AND SOUTHERN FOOTHILLS...

CITY           SKY/WX    TMP DP  RH WIND       PRES   REMARKS
COLO. SPRINGS  CLOUDY    39  37  92 NE10      30.09R
A. F. ACADEMY  LGT RAIN  38  38  99 N8        30.08S
ELLICOTT       CLOUDY   N/A N/A N/A NE12      30.06S
FALCON         CLOUDY    36  36  99 NE9       30.10S
FORT CARSON    CLOUDY    39  39 100 N6        30.07R
LIMON          CLOUDY    39  38  96 NE12      30.08S
MONUMENT HILL  LGT RAIN  34  34 100 NE6       30.09S WCI  29
TRINIDAD       LGT RAIN  41  39  93 NE16      30.00S FOG
$$

COZ042>045-048>051-090-091-270900-
...NORTHEAST COLORADO...

CITY           SKY/WX    TMP DP  RH WIND       PRES   REMARKS
GREELEY ARPT   CLOUDY    37  34  87 E9        30.15S
AKRON          LGT RAIN  41  41 100 E9        30.11S FOG
BURLINGTON     CLOUDY    43  41  93 NE15      30.07F
WRAY           CLOUDY    46  46 100 NE9       30.11S
STERLING       CLOUDY    43  43 100 NE5       30.12S FOG
HOLYOKE        MOCLDY    46  43  87 E7        30.13S
FORT MORGAN    DRIZZLE   40  39  95 N7        30.13S
$$

COZ086-089-092>099-270900-
...SOUTHEAST COLORADO...

CITY           SKY/WX    TMP DP  RH WIND       PRES   REMARKS
PUEBLO         LGT RAIN  43  41  93 NE7       30.06S
LA JUNTA       CLOUDY    45  42  89 NE12      30.02F
LAMAR          CLOUDY    43  43 100 NE16      30.00S FOG
SPRINGFIELD      N/A     41  41 100 NE17      29.99R
$$


USA.gov is the U.S. government's official web portal to all federal, state and local government web resources and services.